Time,TemperatureF,DewpointF,PressureIn,WindDirection,WindDirectionDegrees,WindSpeedMPH,WindSpeedGustMPH,Humidity,HourlyPrecipIn,Conditions,Clouds,dailyrainin,SoftwareType,DateUTC
2013-03-28 00:00:00,41.0,28.2,30.10,West,279,0.0,6.0,60,0.00,,,0.00,WUHU216DAVISVP2,2013-03-28 04:00:00,
2013-03-28 00:05:00,40.9,28.1,30.10,West,259,3.0,6.0,60,0.00,,,0.00,WUHU216DAVISVP2,2013-03-28 04:05:00,
2013-03-28 00:10:00,40.9,28.6,30.10,West,275,4.0,7.0,61,0.00,,,0.00,WUHU216DAVISVP2,2013-03-28 04:10:00,
2013-03-28 00:15:00,40.9,28.6,30.10,WNW,290,0.0,7.0,61,0.00,,,0.00,WUHU216DAVISVP2,2013-03-28 04:15:00,
2013-03-28 00:20:00,40.8,28.5,30.10,NNW,335,3.0,7.0,61,0.00,,,0.00,WUHU216DAVISVP2,2013-03-28 04:20:00,
2013-03-28 00:25:00,40.8,28.5,30.10,West,281,3.0,7.0,61,0.00,,,0.00,WUHU216DAVISVP2,2013-03-28 04:25:00,
2013-03-28 00:30:00,40.9,28.6,30.10,West,269,2.0,14.0,61,0.00,,,0.00,WUHU216DAVISVP2,2013-03-28 04:30:00,
2013-03-28 00:35:00,40.9,28.6,30.10,NW,311,0.0,14.0,61,0.00,,,0.00,WUHU216DAVISVP2,2013-03-28 04:35:00,
2013-03-28 00:40:00,40.9,28.6,30.10,WNW,303,1.0,14.0,61,0.00,,,0.00,WUHU216DAVISVP2,2013-03-28 04:40:00,
2013-03-28 00:45:00,40.9,28.6,30.10,WNW,290,2.0,14.0,61,0.00,,,0.00,WUHU216DAVISVP2,2013-03-28 04:45:00,
2013-03-28 00:50:00,40.8,28.5,30.10,West,281,1.0,10.0,61,0.00,,,0.00,WUHU216DAVISVP2,2013-03-28 04:50:00,
2013-03-28 00:55:00,40.6,28.3,30.10,West,277,2.0,8.0,61,0.00,,,0.00,WUHU216DAVISVP2,2013-03-28 04:55:00,
2013-03-28 01:00:00,40.4,28.5,30.10,West,281,1.0,8.0,62,0.00,,,0.00,WUHU216DAVISVP2,2013-03-28 05:00:00,
2013-03-28 01:05:00,40.1,28.2,30.10,WNW,292,1.0,8.0,62,0.00,,,0.00,WUHU216DAVISVP2,2013-03-28 05:05:00,
2013-03-28 01:10:00,40.0,28.5,30.10,WNW,300,3.0,9.0,63,0.00,,,0.00,WUHU216DAVISVP2,2013-03-28 05:10:00,
2013-03-28 01:15:00,39.8,28.3,30.10,West,268,4.0,9.0,63,0.00,,,0.00,WUHU216DAVISVP2,2013-03-28 05:15:00,
2013-03-28 01:20:00,39.7,28.6,30.10,West,272,0.0,9.0,64,0.00,,,0.00,WUHU216DAVISVP2,2013-03-28 05:20:00,
2013-03-28 01:25:00,39.6,28.5,30.10,NW,326,1.0,7.0,64,0.00,,,0.00,WUHU216DAVISVP2,2013-03-28 05:25:00,
2013-03-28 01:30:00,39.4,28.7,30.10,WNW,284,2.0,7.0,65,0.00,,,0.00,WUHU216DAVISVP2,2013-03-28 05:30:00,
2013-03-28 01:35:00,39.2,28.9,30.10,West,266,0.0,6.0,66,0.00,,,0.00,WUHU216DAVISVP2,2013-03-28 05:35:00,
2013-03-28 01:40:00,39.1,28.8,30.10,West,269,3.0,6.0,66,0.00,,,0.00,WUHU216DAVISVP2,2013-03-28 05:40:00,
2013-03-28 01:46:00,38.8,28.9,30.10,West,269,1.0,5.0,67,0.00,,,0.00,WUHU216DAVISVP2,2013-03-28 05:46:00,
2013-03-28 01:51:00,38.6,29.0,30.09,WNW,299,1.0,4.0,68,0.00,,,0.00,WUHU216DAVISVP2,2013-03-28 05:51:00,
2013-03-28 01:56:00,38.4,28.8,30.10,WNW,299,0.0,4.0,68,0.00,,,0.00,WUHU216DAVISVP2,2013-03-28 05:56:00,
2013-03-28 02:01:00,38.1,28.9,30.09,WNW,299,1.0,4.0,69,0.00,,,0.00,WUHU216DAVISVP2,2013-03-28 06:01:00,
2013-03-28 02:06:00,38.0,29.2,30.10,West,267,0.0,4.0,70,0.00,,,0.00,WUHU216DAVISVP2,2013-03-28 06:06:00,
2013-03-28 02:11:00,37.8,29.0,30.09,West,267,3.0,4.0,70,0.00,,,0.00,WUHU216DAVISVP2,2013-03-28 06:11:00,
2013-03-28 02:16:00,37.6,29.1,30.10,WNW,288,1.0,4.0,71,0.00,,,0.00,WUHU216DAVISVP2,2013-03-28 06:16:00,
2013-03-28 02:21:00,37.4,28.9,30.10,West,265,1.0,6.0,71,0.00,,,0.00,WUHU216DAVISVP2,2013-03-28 06:21:00,
2013-03-28 02:26:00,37.3,29.2,30.10,WSW,258,4.0,6.0,72,0.00,,,0.00,WUHU216DAVISVP2,2013-03-28 06:26:00,
2013-03-28 02:31:00,37.5,29.4,30.10,West,279,3.0,6.0,72,0.00,,,0.00,WUHU216DAVISVP2,2013-03-28 06:31:00,
2013-03-28 02:37:00,37.5,29.4,30.09,WNW,293,0.0,6.0,72,0.00,,,0.00,WUHU216DAVISVP2,2013-03-28 06:37:00,
2013-03-28 02:42:00,37.5,29.4,30.09,WNW,283,5.0,7.0,72,0.00,,,0.00,WUHU216DAVISVP2,2013-03-28 06:42:00,
2013-03-28 02:47:00,37.6,29.5,30.09,West,277,1.0,7.0,72,0.00,,,0.00,WUHU216DAVISVP2,2013-03-28 06:47:00,
2013-03-28 02:52:00,37.6,29.5,30.09,West,280,4.0,7.0,72,0.00,,,0.00,WUHU216DAVISVP2,2013-03-28 06:52:00,
2013-03-28 02:57:00,37.5,29.4,30.09,WNW,290,0.0,7.0,72,0.00,,,0.00,WUHU216DAVISVP2,2013-03-28 06:57:00,
2013-03-28 03:02:00,37.4,29.6,30.09,West,279,2.0,6.0,73,0.00,,,0.00,WUHU216DAVISVP2,2013-03-28 07:02:00,
2013-03-28 03:07:00,37.4,29.6,30.09,West,275,2.0,6.0,73,0.00,,,0.00,WUHU216DAVISVP2,2013-03-28 07:07:00,
2013-03-28 03:12:00,37.5,30.0,30.09,WNW,285,4.0,6.0,74,0.00,,,0.00,WUHU216DAVISVP2,2013-03-28 07:12:00,
2013-03-28 03:17:00,37.6,30.1,30.09,West,276,3.0,7.0,74,0.00,,,0.00,WUHU216DAVISVP2,2013-03-28 07:17:00,
2013-03-28 03:22:00,37.7,30.2,30.09,WNW,286,3.0,7.0,74,0.00,,,0.00,WUHU216DAVISVP2,2013-03-28 07:22:00,
2013-03-28 03:27:00,37.9,30.4,30.09,WNW,286,1.0,7.0,74,0.00,,,0.00,WUHU216DAVISVP2,2013-03-28 07:27:00,
2013-03-28 03:32:00,38.0,30.5,30.09,NNW,345,1.0,7.0,74,0.00,,,0.00,WUHU216DAVISVP2,2013-03-28 07:32:00,
2013-03-28 03:37:00,38.0,30.2,30.09,West,281,3.0,7.0,73,0.00,,,0.00,WUHU216DAVISVP2,2013-03-28 07:37:00,
2013-03-28 03:42:00,38.0,30.5,30.09,West,271,2.0,8.0,74,0.00,,,0.00,WUHU216DAVISVP2,2013-03-28 07:42:00,
2013-03-28 03:47:00,38.2,30.4,30.09,WNW,286,1.0,8.0,73,0.00,,,0.00,WUHU216DAVISVP2,2013-03-28 07:47:00,
2013-03-28 03:52:00,38.2,30.7,30.09,WNW,284,0.0,8.0,74,0.00,,,0.00,WUHU216DAVISVP2,2013-03-28 07:52:00,
2013-03-28 03:57:00,38.1,30.6,30.09,WNW,287,2.0,8.0,74,0.00,,,0.00,WUHU216DAVISVP2,2013-03-28 07:57:00,
2013-03-28 04:02:00,38.0,30.5,30.08,West,267,0.0,5.0,74,0.00,,,0.00,WUHU216DAVISVP2,2013-03-28 08:02:00,
2013-03-28 04:07:00,37.9,30.4,30.09,WNW,284,0.0,5.0,74,0.00,,,0.00,WUHU216DAVISVP2,2013-03-28 08:07:00,
2013-03-28 04:12:00,37.8,30.3,30.09,WNW,284,1.0,5.0,74,0.00,,,0.00,WUHU216DAVISVP2,2013-03-28 08:12:00,
2013-03-28 04:17:00,37.7,30.2,30.08,WNW,284,1.0,5.0,74,0.00,,,0.00,WUHU216DAVISVP2,2013-03-28 08:17:00,
2013-03-28 04:22:00,37.6,30.1,30.08,WNW,284,2.0,4.0,74,0.00,,,0.00,WUHU216DAVISVP2,2013-03-28 08:22:00,
2013-03-28 04:27:00,37.5,30.3,30.08,West,263,2.0,5.0,75,0.00,,,0.00,WUHU216DAVISVP2,2013-03-28 08:27:00,
2013-03-28 04:33:00,37.5,30.3,30.08,West,259,2.0,5.0,75,0.00,,,0.00,WUHU216DAVISVP2,2013-03-28 08:33:00,
2013-03-28 04:38:00,37.4,30.2,30.08,West,259,2.0,5.0,75,0.00,,,0.00,WUHU216DAVISVP2,2013-03-28 08:38:00,
2013-03-28 04:43:00,37.3,30.2,30.08,West,271,1.0,5.0,75,0.00,,,0.00,WUHU216DAVISVP2,2013-03-28 08:43:00,
2013-03-28 04:48:00,37.3,30.2,30.08,West,270,1.0,5.0,75,0.00,,,0.00,WUHU216DAVISVP2,2013-03-28 08:48:00,
2013-03-28 04:53:00,37.1,30.0,30.08,West,269,0.0,5.0,75,0.00,,,0.00,WUHU216DAVISVP2,2013-03-28 08:53:00,
2013-03-28 04:58:00,36.9,29.8,30.08,West,269,1.0,3.0,75,0.00,,,0.00,WUHU216DAVISVP2,2013-03-28 08:58:00,
2013-03-28 05:03:00,36.7,29.6,30.08,West,269,1.0,3.0,75,0.00,,,0.00,WUHU216DAVISVP2,2013-03-28 09:03:00,
2013-03-28 05:08:00,36.4,29.6,30.08,West,269,0.0,3.0,76,0.00,,,0.00,WUHU216DAVISVP2,2013-03-28 09:08:00,
2013-03-28 05:13:00,36.1,29.3,30.08,West,269,0.0,3.0,76,0.00,,,0.00,WUHU216DAVISVP2,2013-03-28 09:13:00,
2013-03-28 05:18:00,35.9,29.4,30.08,West,269,0.0,2.0,77,0.00,,,0.00,WUHU216DAVISVP2,2013-03-28 09:18:00,
2013-03-28 05:23:00,35.6,29.1,30.08,West,269,0.0,2.0,77,0.00,,,0.00,WUHU216DAVISVP2,2013-03-28 09:23:00,
2013-03-28 05:28:00,35.4,29.2,30.08,West,269,0.0,2.0,78,0.00,,,0.00,WUHU216DAVISVP2,2013-03-28 09:28:00,
2013-03-28 05:33:00,35.1,29.0,30.08,West,269,0.0,2.0,78,0.00,,,0.00,WUHU216DAVISVP2,2013-03-28 09:33:00,
2013-03-28 05:38:00,34.9,28.8,30.08,West,269,1.0,2.0,78,0.00,,,0.00,WUHU216DAVISVP2,2013-03-28 09:38:00,
2013-03-28 05:43:00,34.8,29.0,30.08,West,269,0.0,2.0,79,0.00,,,0.00,WUHU216DAVISVP2,2013-03-28 09:43:00,
2013-03-28 05:48:00,34.6,28.8,30.08,West,269,0.0,2.0,79,0.00,,,0.00,WUHU216DAVISVP2,2013-03-28 09:48:00,
2013-03-28 05:53:00,34.6,28.8,30.08,West,269,1.0,3.0,79,0.00,,,0.00,WUHU216DAVISVP2,2013-03-28 09:53:00,
2013-03-28 05:58:00,34.6,28.8,30.08,West,269,2.0,3.0,79,0.00,,,0.00,WUHU216DAVISVP2,2013-03-28 09:58:00,
2013-03-28 06:03:00,34.5,28.7,30.08,West,269,0.0,3.0,79,0.00,,,0.00,WUHU216DAVISVP2,2013-03-28 10:03:00,
2013-03-28 06:08:00,34.4,28.6,30.08,West,269,1.0,3.0,79,0.00,,,0.00,WUHU216DAVISVP2,2013-03-28 10:08:00,
2013-03-28 06:13:00,34.3,28.5,30.09,West,269,0.0,3.0,79,0.00,,,0.00,WUHU216DAVISVP2,2013-03-28 10:13:00,
2013-03-28 06:18:00,34.0,28.2,30.09,West,269,0.0,3.0,79,0.00,,,0.00,WUHU216DAVISVP2,2013-03-28 10:18:00,
2013-03-28 06:23:00,33.8,28.0,30.09,West,269,0.0,2.0,79,0.00,,,0.00,WUHU216DAVISVP2,2013-03-28 10:23:00,
2013-03-28 06:28:00,33.5,28.0,30.09,West,269,0.0,1.0,80,0.00,,,0.00,WUHU216DAVISVP2,2013-03-28 10:28:00,
2013-03-28 06:33:00,33.4,27.9,30.09,West,269,0.0,1.0,80,0.00,,,0.00,WUHU216DAVISVP2,2013-03-28 10:33:00,
2013-03-28 06:38:00,33.0,27.8,30.09,West,269,2.0,2.0,81,0.00,,,0.00,WUHU216DAVISVP2,2013-03-28 10:38:00,
2013-03-28 06:43:00,33.0,28.1,30.09,West,269,1.0,3.0,82,0.00,,,0.00,WUHU216DAVISVP2,2013-03-28 10:43:00,
2013-03-28 06:48:00,32.9,28.0,30.09,West,269,1.0,3.0,82,0.00,,,0.00,WUHU216DAVISVP2,2013-03-28 10:48:00,
2013-03-28 06:53:00,33.0,28.1,30.09,West,269,1.0,4.0,82,0.00,,,0.00,WUHU216DAVISVP2,2013-03-28 10:53:00,
2013-03-28 06:58:00,33.0,28.1,30.09,West,269,0.0,4.0,82,0.00,,,0.00,WUHU216DAVISVP2,2013-03-28 10:58:00,
2013-03-28 07:03:00,33.2,28.3,30.09,West,269,0.0,4.0,82,0.00,,,0.00,WUHU216DAVISVP2,2013-03-28 11:03:00,
2013-03-28 07:08:00,33.4,28.2,30.09,West,269,0.0,4.0,81,0.00,,,0.00,WUHU216DAVISVP2,2013-03-28 11:08:00,
2013-03-28 07:13:00,33.7,28.5,30.09,West,269,1.0,3.0,81,0.00,,,0.00,WUHU216DAVISVP2,2013-03-28 11:13:00,
2013-03-28 07:18:00,33.9,28.7,30.09,West,269,1.0,3.0,81,0.00,,,0.00,WUHU216DAVISVP2,2013-03-28 11:18:00,
2013-03-28 07:23:00,34.2,28.7,30.09,West,269,2.0,3.0,80,0.00,,,0.00,WUHU216DAVISVP2,2013-03-28 11:23:00,
2013-03-28 07:28:00,34.5,28.7,30.09,West,269,1.0,3.0,79,0.00,,,0.00,WUHU216DAVISVP2,2013-03-28 11:28:00,
2013-03-28 07:33:00,34.8,28.7,30.09,WSW,248,1.0,4.0,78,0.00,,,0.00,WUHU216DAVISVP2,2013-03-28 11:33:00,
2013-03-28 07:38:00,35.1,29.0,30.09,WNW,297,1.0,4.0,78,0.00,,,0.00,WUHU216DAVISVP2,2013-03-28 11:38:00,
2013-03-28 07:43:00,35.4,28.9,30.09,West,273,4.0,5.0,77,0.00,,,0.00,WUHU216DAVISVP2,2013-03-28 11:43:00,
2013-03-28 07:48:00,35.8,29.3,30.09,WSW,254,6.0,7.0,77,0.00,,,0.00,WUHU216DAVISVP2,2013-03-28 11:48:00,
2013-03-28 07:53:00,36.4,29.6,30.10,West,273,5.0,8.0,76,0.00,,,0.00,WUHU216DAVISVP2,2013-03-28 11:53:00,
2013-03-28 07:59:00,37.0,29.9,30.10,West,267,3.0,8.0,75,0.00,,,0.00,WUHU216DAVISVP2,2013-03-28 11:59:00,
2013-03-28 08:04:00,37.5,30.0,30.10,West,261,2.0,8.0,74,0.00,,,0.00,WUHU216DAVISVP2,2013-03-28 12:04:00,
2013-03-28 08:09:00,37.7,29.9,30.09,WNW,289,3.0,8.0,73,0.00,,,0.00,WUHU216DAVISVP2,2013-03-28 12:09:00,
2013-03-28 08:14:00,37.9,30.1,30.10,West,275,4.0,7.0,73,0.00,,,0.00,WUHU216DAVISVP2,2013-03-28 12:14:00,
2013-03-28 08:19:00,38.4,30.2,30.10,WNW,284,2.0,7.0,72,0.00,,,0.00,WUHU216DAVISVP2,2013-03-28 12:19:00,
2013-03-28 08:24:00,39.0,30.8,30.10,WSW,254,3.0,7.0,72,0.00,,,0.00,WUHU216DAVISVP2,2013-03-28 12:24:00,
2013-03-28 08:29:00,39.3,30.4,30.09,West,266,4.0,8.0,70,0.00,,,0.00,WUHU216DAVISVP2,2013-03-28 12:29:00,
2013-03-28 08:34:00,39.3,30.4,30.10,WNW,293,1.0,8.0,70,0.00,,,0.00,WUHU216DAVISVP2,2013-03-28 12:34:00,
2013-03-28 08:39:00,39.4,30.5,30.10,North,355,3.0,8.0,70,0.00,,,0.00,WUHU216DAVISVP2,2013-03-28 12:39:00,
2013-03-28 08:44:00,39.6,30.7,30.10,West,271,4.0,8.0,70,0.00,,,0.00,WUHU216DAVISVP2,2013-03-28 12:44:00,
2013-03-28 08:49:00,39.9,31.0,30.10,NW,311,1.0,8.0,70,0.00,,,0.00,WUHU216DAVISVP2,2013-03-28 12:49:00,
2013-03-28 08:54:00,40.6,31.3,30.10,WNW,288,2.0,10.0,69,0.00,,,0.00,WUHU216DAVISVP2,2013-03-28 12:54:00,
2013-03-28 08:59:00,41.1,31.4,30.10,West,271,2.0,12.0,68,0.00,,,0.00,WUHU216DAVISVP2,2013-03-28 12:59:00,
2013-03-28 09:04:00,41.6,31.5,30.10,WNW,296,4.0,13.0,67,0.00,,,0.00,WUHU216DAVISVP2,2013-03-28 13:04:00,
2013-03-28 09:09:00,41.8,31.7,30.10,WNW,290,6.0,13.0,67,0.00,,,0.00,WUHU216DAVISVP2,2013-03-28 13:09:00,
2013-03-28 09:14:00,42.0,31.9,30.10,WNW,282,3.0,13.0,67,0.00,,,0.00,WUHU216DAVISVP2,2013-03-28 13:14:00,
2013-03-28 09:19:00,42.3,31.8,30.10,West,279,5.0,10.0,66,0.00,,,0.00,WUHU216DAVISVP2,2013-03-28 13:19:00,
2013-03-28 09:24:00,42.5,31.3,30.10,NW,306,3.0,10.0,64,0.00,,,0.00,WUHU216DAVISVP2,2013-03-28 13:24:00,
2013-03-28 09:29:00,42.8,31.9,30.10,WNW,302,2.0,16.0,65,0.00,,,0.00,WUHU216DAVISVP2,2013-03-28 13:29:00,
2013-03-28 09:34:00,43.4,32.1,30.10,West,281,9.0,16.0,64,0.00,,,0.00,WUHU216DAVISVP2,2013-03-28 13:34:00,
2013-03-28 09:39:00,44.0,32.7,30.10,West,273,5.0,16.0,64,0.00,,,0.00,WUHU216DAVISVP2,2013-03-28 13:39:00,
2013-03-28 09:44:00,44.7,33.0,30.10,NNE,19,3.0,16.0,63,0.00,,,0.00,WUHU216DAVISVP2,2013-03-28 13:44:00,
2013-03-28 09:49:00,45.2,33.0,30.10,West,279,0.0,15.0,62,0.00,,,0.00,WUHU216DAVISVP2,2013-03-28 13:49:00,
2013-03-28 09:54:00,45.4,32.8,30.10,NW,312,4.0,11.0,61,0.00,,,0.00,WUHU216DAVISVP2,2013-03-28 13:54:00,
2013-03-28 09:59:00,45.5,33.3,30.10,WNW,282,5.0,11.0,62,0.00,,,0.00,WUHU216DAVISVP2,2013-03-28 13:59:00,
2013-03-28 10:04:00,45.7,32.7,30.10,West,268,10.0,11.0,60,0.00,,,0.00,WUHU216DAVISVP2,2013-03-28 14:04:00,
2013-03-28 10:09:00,45.4,32.4,30.10,North,355,3.0,11.0,60,0.00,,,0.00,WUHU216DAVISVP2,2013-03-28 14:09:00,
2013-03-28 10:14:00,45.4,32.4,30.11,NW,325,2.0,12.0,60,0.00,,,0.00,WUHU216DAVISVP2,2013-03-28 14:14:00,
2013-03-28 10:19:00,45.2,32.2,30.11,NW,313,2.0,13.0,60,0.00,,,0.00,WUHU216DAVISVP2,2013-03-28 14:19:00,
2013-03-28 10:24:00,45.4,32.4,30.11,NNW,332,1.0,13.0,60,0.00,,,0.00,WUHU216DAVISVP2,2013-03-28 14:24:00,
2013-03-28 10:29:00,45.4,32.0,30.11,NW,308,1.0,13.0,59,0.00,,,0.00,WUHU216DAVISVP2,2013-03-28 14:29:00,
2013-03-28 10:34:00,45.3,31.9,30.11,NNE,24,6.0,10.0,59,0.00,,,0.00,WUHU216DAVISVP2,2013-03-28 14:34:00,
2013-03-28 10:39:00,45.1,31.7,30.11,NNW,342,1.0,15.0,59,0.00,,,0.00,WUHU216DAVISVP2,2013-03-28 14:39:00,
2013-03-28 10:44:00,44.9,31.9,30.11,West,259,1.0,15.0,60,0.00,,,0.00,WUHU216DAVISVP2,2013-03-28 14:44:00,
2013-03-28 10:49:00,44.8,32.2,30.11,WNW,294,2.0,15.0,61,0.00,,,0.00,WUHU216DAVISVP2,2013-03-28 14:49:00,
2013-03-28 10:54:00,44.9,32.3,30.11,WNW,283,3.0,12.0,61,0.00,,,0.00,WUHU216DAVISVP2,2013-03-28 14:54:00,
2013-03-28 10:59:00,44.9,32.8,30.11,North,5,4.0,12.0,62,0.00,,,0.00,WUHU216DAVISVP2,2013-03-28 14:59:00,
2013-03-28 11:04:00,44.9,32.3,30.12,North,5,7.0,12.0,61,0.00,,,0.00,WUHU216DAVISVP2,2013-03-28 15:04:00,
2013-03-28 11:09:00,44.7,32.6,30.12,North,355,2.0,12.0,62,0.00,,,0.00,WUHU216DAVISVP2,2013-03-28 15:09:00,
2013-03-28 11:14:00,44.0,32.3,30.12,SW,214,2.0,15.0,63,0.00,,,0.00,WUHU216DAVISVP2,2013-03-28 15:14:00,
2013-03-28 11:19:00,44.0,32.3,30.12,North,350,2.0,15.0,63,0.00,,,0.00,WUHU216DAVISVP2,2013-03-28 15:19:00,
2013-03-28 11:24:00,44.2,32.5,30.12,West,266,3.0,15.0,63,0.00,,,0.00,WUHU216DAVISVP2,2013-03-28 15:24:00,
2013-03-28 11:29:00,44.5,32.4,30.12,WSW,242,7.0,11.0,62,0.00,,,0.00,WUHU216DAVISVP2,2013-03-28 15:29:00,
2013-03-28 11:35:00,44.9,32.8,30.12,WNW,284,4.0,12.0,62,0.00,,,0.00,WUHU216DAVISVP2,2013-03-28 15:35:00,
2013-03-28 11:40:00,45.2,32.6,30.12,NW,317,3.0,12.0,61,0.00,,,0.00,WUHU216DAVISVP2,2013-03-28 15:40:00,
2013-03-28 11:45:00,45.5,32.5,30.12,West,281,9.0,12.0,60,0.00,,,0.00,WUHU216DAVISVP2,2013-03-28 15:45:00,
2013-03-28 11:50:00,45.8,32.4,30.12,NNW,331,3.0,12.0,59,0.00,,,0.00,WUHU216DAVISVP2,2013-03-28 15:50:00,
2013-03-28 11:55:00,45.9,32.9,30.12,North,349,2.0,11.0,60,0.00,,,0.00,WUHU216DAVISVP2,2013-03-28 15:55:00,
2013-03-28 12:00:00,46.1,33.1,30.12,NNE,13,3.0,11.0,60,0.00,,,0.00,WUHU216DAVISVP2,2013-03-28 16:00:00,
2013-03-28 12:05:00,46.5,33.0,30.12,NNE,31,1.0,11.0,59,0.00,,,0.00,WUHU216DAVISVP2,2013-03-28 16:05:00,
2013-03-28 12:10:00,46.8,32.9,30.12,NW,315,4.0,11.0,58,0.00,,,0.00,WUHU216DAVISVP2,2013-03-28 16:10:00,
2013-03-28 12:15:00,46.4,32.5,30.12,North,9,5.0,11.0,58,0.00,,,0.00,WUHU216DAVISVP2,2013-03-28 16:15:00,
2013-03-28 12:20:00,45.8,32.4,30.12,NNW,331,4.0,11.0,59,0.00,,,0.00,WUHU216DAVISVP2,2013-03-28 16:20:00,
2013-03-28 12:25:00,45.4,32.8,30.12,NNE,12,5.0,11.0,61,0.00,,,0.00,WUHU216DAVISVP2,2013-03-28 16:25:00,
2013-03-28 12:30:00,44.9,33.2,30.13,NNE,15,6.0,11.0,63,0.00,,,0.00,WUHU216DAVISVP2,2013-03-28 16:30:00,
2013-03-28 12:35:00,44.3,34.1,30.13,WSW,250,1.0,11.0,67,0.00,,,0.00,WUHU216DAVISVP2,2013-03-28 16:35:00,
2013-03-28 12:40:00,43.9,34.1,30.13,NW,304,5.0,11.0,68,0.00,,,0.00,WUHU216DAVISVP2,2013-03-28 16:40:00,
2013-03-28 12:46:00,43.5,34.1,30.13,North,351,2.0,11.0,69,0.00,,,0.00,WUHU216DAVISVP2,2013-03-28 16:46:00,
2013-03-28 12:50:00,43.3,34.3,30.12,North,355,1.0,11.0,70,0.00,,,0.00,WUHU216DAVISVP2,2013-03-28 16:50:00,
2013-03-28 12:55:00,43.5,34.1,30.13,NW,313,2.0,9.0,69,0.00,,,0.00,WUHU216DAVISVP2,2013-03-28 16:55:00,
2013-03-28 13:00:00,43.8,34.4,30.13,North,360,4.0,8.0,69,0.00,,,0.00,WUHU216DAVISVP2,2013-03-28 17:00:00,
2013-03-28 13:06:00,44.2,33.3,30.12,North,351,3.0,9.0,65,0.00,,,0.00,WUHU216DAVISVP2,2013-03-28 17:06:00,
2013-03-28 13:11:00,44.7,33.0,30.12,North,5,3.0,9.0,63,0.00,,,0.00,WUHU216DAVISVP2,2013-03-28 17:11:00,
2013-03-28 13:16:00,46.0,33.4,30.12,NNE,19,3.0,9.0,61,0.00,,,0.00,WUHU216DAVISVP2,2013-03-28 17:16:00,
2013-03-28 13:21:00,47.2,32.8,30.11,WSW,254,6.0,10.0,57,0.00,,,0.00,WUHU216DAVISVP2,2013-03-28 17:21:00,
2013-03-28 13:26:00,47.5,31.7,30.11,WNW,298,11.0,11.0,54,0.00,,,0.00,WUHU216DAVISVP2,2013-03-28 17:26:00,
2013-03-28 13:31:00,47.4,30.6,30.11,NW,311,2.0,13.0,52,0.00,,,0.00,WUHU216DAVISVP2,2013-03-28 17:31:00,
2013-03-28 13:36:00,47.1,30.9,30.11,North,355,5.0,13.0,53,0.00,,,0.00,WUHU216DAVISVP2,2013-03-28 17:36:00,
2013-03-28 13:41:00,47.1,31.3,30.11,North,355,5.0,13.0,54,0.00,,,0.00,WUHU216DAVISVP2,2013-03-28 17:41:00,
2013-03-28 13:46:00,47.0,30.8,30.11,NNW,344,0.0,9.0,53,0.00,,,0.00,WUHU216DAVISVP2,2013-03-28 17:46:00,
2013-03-28 13:51:00,47.0,31.7,30.11,NW,311,2.0,8.0,55,0.00,,,0.00,WUHU216DAVISVP2,2013-03-28 17:51:00,
2013-03-28 13:56:00,46.9,30.7,30.11,North,360,5.0,10.0,53,0.00,,,0.00,WUHU216DAVISVP2,2013-03-28 17:56:00,
2013-03-28 14:01:00,46.8,30.1,30.11,NW,324,2.0,10.0,52,0.00,,,0.00,WUHU216DAVISVP2,2013-03-28 18:01:00,
2013-03-28 14:06:00,46.6,29.4,30.11,West,273,2.0,16.0,51,0.00,,,0.00,WUHU216DAVISVP2,2013-03-28 18:06:00,
2013-03-28 14:11:00,46.6,29.4,30.11,WNW,303,2.0,16.0,51,0.00,,,0.00,WUHU216DAVISVP2,2013-03-28 18:11:00,
2013-03-28 14:16:00,47.0,30.3,30.11,NNW,339,3.0,16.0,52,0.00,,,0.00,WUHU216DAVISVP2,2013-03-28 18:16:00,
2013-03-28 14:21:00,47.5,30.2,30.11,WNW,290,1.0,16.0,51,0.00,,,0.00,WUHU216DAVISVP2,2013-03-28 18:21:00,
2013-03-28 14:26:00,47.7,29.4,30.11,NNW,327,2.0,11.0,49,0.00,,,0.00,WUHU216DAVISVP2,2013-03-28 18:26:00,
2013-03-28 14:31:00,47.6,29.3,30.11,NNE,12,3.0,11.0,49,0.00,,,0.00,WUHU216DAVISVP2,2013-03-28 18:31:00,
2013-03-28 14:36:00,47.7,29.4,30.11,WNW,292,2.0,11.0,49,0.00,,,0.00,WUHU216DAVISVP2,2013-03-28 18:36:00,
2013-03-28 14:41:00,47.8,29.0,30.11,NW,323,4.0,11.0,48,0.00,,,0.00,WUHU216DAVISVP2,2013-03-28 18:41:00,
2013-03-28 14:46:00,47.8,29.0,30.11,NNE,33,5.0,10.0,48,0.00,,,0.00,WUHU216DAVISVP2,2013-03-28 18:46:00,
2013-03-28 14:51:00,47.9,28.0,30.11,North,5,3.0,11.0,46,0.00,,,0.00,WUHU216DAVISVP2,2013-03-28 18:51:00,
2013-03-28 14:56:00,48.0,28.6,30.11,NE,49,4.0,11.0,47,0.00,,,0.00,WUHU216DAVISVP2,2013-03-28 18:56:00,
2013-03-28 15:01:00,48.2,28.8,30.11,WNW,296,3.0,11.0,47,0.00,,,0.00,WUHU216DAVISVP2,2013-03-28 19:01:00,
2013-03-28 15:05:00,48.2,28.8,30.11,NNW,336,3.0,11.0,47,0.00,,,0.00,WUHU216DAVISVP2,2013-03-28 19:05:00,
2013-03-28 15:11:00,48.3,28.4,30.11,North,11,2.0,11.0,46,0.00,,,0.00,WUHU216DAVISVP2,2013-03-28 19:11:00,
2013-03-28 15:16:00,48.4,28.5,30.11,NNW,342,4.0,11.0,46,0.00,,,0.00,WUHU216DAVISVP2,2013-03-28 19:16:00,
2013-03-28 15:21:00,48.6,28.1,30.11,WNW,294,3.0,10.0,45,0.00,,,0.00,WUHU216DAVISVP2,2013-03-28 19:21:00,
2013-03-28 15:26:00,48.9,28.9,30.11,NNW,342,1.0,10.0,46,0.00,,,0.00,WUHU216DAVISVP2,2013-03-28 19:26:00,
2013-03-28 15:31:00,49.4,29.4,30.11,WNW,290,3.0,11.0,46,0.00,,,0.00,WUHU216DAVISVP2,2013-03-28 19:31:00,
2013-03-28 15:37:00,49.6,27.3,30.11,NNW,339,3.0,11.0,42,0.00,,,0.00,WUHU216DAVISVP2,2013-03-28 19:37:00,
2013-03-28 15:42:00,49.2,27.5,30.11,NE,36,3.0,11.0,43,0.00,,,0.00,WUHU216DAVISVP2,2013-03-28 19:42:00,
2013-03-28 15:47:00,49.1,28.6,30.11,NNE,20,2.0,11.0,45,0.00,,,0.00,WUHU216DAVISVP2,2013-03-28 19:47:00,
2013-03-28 15:52:00,49.0,28.5,30.11,NNE,19,3.0,8.0,45,0.00,,,0.00,WUHU216DAVISVP2,2013-03-28 19:52:00,
2013-03-28 15:57:00,49.3,28.7,30.11,North,5,2.0,8.0,45,0.00,,,0.00,WUHU216DAVISVP2,2013-03-28 19:57:00,
2013-03-28 16:02:00,49.8,28.6,30.11,WNW,294,0.0,10.0,44,0.00,,,0.00,WUHU216DAVISVP2,2013-03-28 20:02:00,
2013-03-28 16:07:00,49.8,28.6,30.10,NNE,15,3.0,10.0,44,0.00,,,0.00,WUHU216DAVISVP2,2013-03-28 20:07:00,
2013-03-28 16:12:00,49.6,28.4,30.10,WNW,302,1.0,10.0,44,0.00,,,0.00,WUHU216DAVISVP2,2013-03-28 20:12:00,
2013-03-28 16:17:00,49.5,28.4,30.11,North,355,3.0,10.0,44,0.00,,,0.00,WUHU216DAVISVP2,2013-03-28 20:17:00,
2013-03-28 16:22:00,49.3,28.2,30.11,West,277,5.0,9.0,44,0.00,,,0.00,WUHU216DAVISVP2,2013-03-28 20:22:00,
2013-03-28 16:27:00,49.3,28.2,30.11,WNW,284,1.0,12.0,44,0.00,,,0.00,WUHU216DAVISVP2,2013-03-28 20:27:00,
2013-03-28 16:32:00,49.6,28.4,30.10,NW,309,0.0,12.0,44,0.00,,,0.00,WUHU216DAVISVP2,2013-03-28 20:32:00,
2013-03-28 16:37:00,49.9,27.6,30.10,West,273,6.0,12.0,42,0.00,,,0.00,WUHU216DAVISVP2,2013-03-28 20:37:00,
2013-03-28 16:42:00,50.0,27.6,30.11,NNW,336,4.0,11.0,42,0.00,,,0.00,WUHU216DAVISVP2,2013-03-28 20:42:00,
2013-03-28 16:47:00,49.9,27.6,30.11,North,5,4.0,11.0,42,0.00,,,0.00,WUHU216DAVISVP2,2013-03-28 20:47:00,
2013-03-28 16:52:00,49.7,27.4,30.11,NNE,12,1.0,11.0,42,0.00,,,0.00,WUHU216DAVISVP2,2013-03-28 20:52:00,
2013-03-28 16:57:00,49.7,28.0,30.11,NNW,340,2.0,11.0,43,0.00,,,0.00,WUHU216DAVISVP2,2013-03-28 20:57:00,
2013-03-28 17:02:00,49.4,27.7,30.11,NNW,334,4.0,11.0,43,0.00,,,0.00,WUHU216DAVISVP2,2013-03-28 21:02:00,
2013-03-28 17:07:00,49.1,27.4,30.11,West,263,3.0,10.0,43,0.00,,,0.00,WUHU216DAVISVP2,2013-03-28 21:07:00,
2013-03-28 17:12:00,49.0,28.5,30.11,WNW,301,2.0,10.0,45,0.00,,,0.00,WUHU216DAVISVP2,2013-03-28 21:12:00,
2013-03-28 17:17:00,49.1,28.0,30.11,NW,319,2.0,11.0,44,0.00,,,0.00,WUHU216DAVISVP2,2013-03-28 21:17:00,
2013-03-28 17:22:00,49.2,28.6,30.11,West,281,4.0,11.0,45,0.00,,,0.00,WUHU216DAVISVP2,2013-03-28 21:22:00,
2013-03-28 17:27:00,49.7,28.5,30.12,West,266,9.0,15.0,44,0.00,,,0.00,WUHU216DAVISVP2,2013-03-28 21:27:00,
2013-03-28 17:32:00,49.9,27.6,30.12,NW,311,2.0,15.0,42,0.00,,,0.00,WUHU216DAVISVP2,2013-03-28 21:32:00,
2013-03-28 17:37:00,49.7,27.4,30.12,NNW,340,0.0,15.0,42,0.00,,,0.00,WUHU216DAVISVP2,2013-03-28 21:37:00,
2013-03-28 17:42:00,49.6,28.4,30.12,WNW,284,5.0,15.0,44,0.00,,,0.00,WUHU216DAVISVP2,2013-03-28 21:42:00,
2013-03-28 17:47:00,49.5,27.8,30.12,NNW,334,6.0,10.0,43,0.00,,,0.00,WUHU216DAVISVP2,2013-03-28 21:47:00,
2013-03-28 17:52:00,49.3,27.0,30.12,North,355,4.0,10.0,42,0.00,,,0.00,WUHU216DAVISVP2,2013-03-28 21:52:00,
2013-03-28 17:57:00,49.2,28.1,30.12,North,355,3.0,9.0,44,0.00,,,0.00,WUHU216DAVISVP2,2013-03-28 21:57:00,
2013-03-28 18:02:00,49.0,27.9,30.13,West,270,6.0,9.0,44,0.00,,,0.00,WUHU216DAVISVP2,2013-03-28 22:02:00,
2013-03-28 18:07:00,48.8,27.7,30.13,NW,325,6.0,16.0,44,0.00,,,0.00,WUHU216DAVISVP2,2013-03-28 22:07:00,
2013-03-28 18:12:00,48.7,27.6,30.13,West,274,2.0,16.0,44,0.00,,,0.00,WUHU216DAVISVP2,2013-03-28 22:12:00,
2013-03-28 18:17:00,48.6,28.1,30.13,WNW,283,2.0,16.0,45,0.00,,,0.00,WUHU216DAVISVP2,2013-03-28 22:17:00,
2013-03-28 18:22:00,48.5,28.0,30.14,WNW,300,2.0,10.0,45,0.00,,,0.00,WUHU216DAVISVP2,2013-03-28 22:22:00,
2013-03-28 18:27:00,48.5,29.1,30.14,NNW,344,2.0,7.0,47,0.00,,,0.00,WUHU216DAVISVP2,2013-03-28 22:27:00,
2013-03-28 18:32:00,48.6,28.6,30.14,WSW,253,0.0,6.0,46,0.00,,,0.00,WUHU216DAVISVP2,2013-03-28 22:32:00,
2013-03-28 18:37:00,48.6,28.1,30.14,WNW,289,6.0,9.0,45,0.00,,,0.00,WUHU216DAVISVP2,2013-03-28 22:37:00,
2013-03-28 18:42:00,48.3,30.5,30.14,WNW,288,4.0,14.0,50,0.00,,,0.00,WUHU216DAVISVP2,2013-03-28 22:42:00,
2013-03-28 18:47:00,47.8,31.5,30.15,WNW,297,3.0,14.0,53,0.00,,,0.00,WUHU216DAVISVP2,2013-03-28 22:47:00,
2013-03-28 18:52:00,47.4,31.6,30.15,NW,313,2.0,14.0,54,0.00,,,0.00,WUHU216DAVISVP2,2013-03-28 22:52:00,
2013-03-28 18:57:00,47.1,31.8,30.15,NW,304,3.0,14.0,55,0.00,,,0.00,WUHU216DAVISVP2,2013-03-28 22:57:00,
2013-03-28 19:02:00,46.9,31.6,30.15,North,5,0.0,13.0,55,0.00,,,0.00,WUHU216DAVISVP2,2013-03-28 23:02:00,
2013-03-28 19:07:00,46.8,32.0,30.16,WSW,250,3.0,13.0,56,0.00,,,0.00,WUHU216DAVISVP2,2013-03-28 23:07:00,
2013-03-28 19:13:00,46.6,31.8,30.16,WNW,294,4.0,11.0,56,0.00,,,0.00,WUHU216DAVISVP2,2013-03-28 23:13:00,
2013-03-28 19:18:00,46.5,32.1,30.16,West,278,3.0,11.0,57,0.00,,,0.00,WUHU216DAVISVP2,2013-03-28 23:18:00,
2013-03-28 19:23:00,46.3,31.9,30.16,WNW,290,6.0,13.0,57,0.00,,,0.00,WUHU216DAVISVP2,2013-03-28 23:23:00,
2013-03-28 19:28:00,46.1,31.8,30.16,West,281,3.0,13.0,57,0.00,,,0.00,WUHU216DAVISVP2,2013-03-28 23:28:00,
2013-03-28 19:33:00,46.0,32.1,30.16,WNW,284,3.0,13.0,58,0.00,,,0.00,WUHU216DAVISVP2,2013-03-28 23:33:00,
2013-03-28 19:38:00,45.8,31.9,30.17,WNW,301,6.0,13.0,58,0.00,,,0.00,WUHU216DAVISVP2,2013-03-28 23:38:00,
2013-03-28 19:43:00,45.7,31.8,30.17,West,274,6.0,10.0,58,0.00,,,0.00,WUHU216DAVISVP2,2013-03-28 23:43:00,
2013-03-28 19:48:00,45.6,31.7,30.17,WNW,284,2.0,10.0,58,0.00,,,0.00,WUHU216DAVISVP2,2013-03-28 23:48:00,
2013-03-28 19:53:00,45.5,31.6,30.17,NNW,346,2.0,10.0,58,0.00,,,0.00,WUHU216DAVISVP2,2013-03-28 23:53:00,
2013-03-28 19:58:00,45.4,31.5,30.18,WNW,300,2.0,10.0,58,0.00,,,0.00,WUHU216DAVISVP2,2013-03-28 23:58:00,
2013-03-28 20:03:00,45.4,32.0,30.18,WSW,254,10.0,10.0,59,0.00,,,0.00,WUHU216DAVISVP2,2013-03-29 00:03:00,
2013-03-28 20:08:00,45.4,32.0,30.18,North,355,2.0,11.0,59,0.00,,,0.00,WUHU216DAVISVP2,2013-03-29 00:08:00,
2013-03-28 20:13:00,45.3,31.9,30.18,West,273,1.0,11.0,59,0.00,,,0.00,WUHU216DAVISVP2,2013-03-29 00:13:00,
2013-03-28 20:18:00,45.1,31.3,30.18,West,277,3.0,11.0,58,0.00,,,0.00,WUHU216DAVISVP2,2013-03-29 00:18:00,
2013-03-28 20:23:00,45.1,31.7,30.18,WNW,290,0.0,9.0,59,0.00,,,0.00,WUHU216DAVISVP2,2013-03-29 00:23:00,
2013-03-28 20:28:00,44.9,31.5,30.18,West,277,3.0,6.0,59,0.00,,,0.00,WUHU216DAVISVP2,2013-03-29 00:28:00,
2013-03-28 20:33:00,44.9,31.5,30.18,WNW,285,1.0,6.0,59,0.00,,,0.00,WUHU216DAVISVP2,2013-03-29 00:33:00,
2013-03-28 20:38:00,45.0,31.6,30.19,South,173,3.0,6.0,59,0.00,,,0.00,WUHU216DAVISVP2,2013-03-29 00:38:00,
2013-03-28 20:43:00,45.0,31.6,30.19,NNW,329,0.0,9.0,59,0.00,,,0.00,WUHU216DAVISVP2,2013-03-29 00:43:00,
2013-03-28 20:48:00,45.0,31.6,30.19,West,277,1.0,9.0,59,0.00,,,0.00,WUHU216DAVISVP2,2013-03-29 00:48:00,
2013-03-28 20:53:00,44.9,31.5,30.19,NW,326,1.0,9.0,59,0.00,,,0.00,WUHU216DAVISVP2,2013-03-29 00:53:00,
2013-03-28 20:59:00,44.8,31.8,30.19,NW,323,3.0,9.0,60,0.00,,,0.00,WUHU216DAVISVP2,2013-03-29 00:59:00,
2013-03-28 21:04:00,44.7,31.7,30.19,WNW,301,2.0,8.0,60,0.00,,,0.00,WUHU216DAVISVP2,2013-03-29 01:04:00,
2013-03-28 21:09:00,44.5,31.5,30.19,NW,321,0.0,8.0,60,0.00,,,0.00,WUHU216DAVISVP2,2013-03-29 01:09:00,
2013-03-28 21:14:00,44.3,31.8,30.20,WNW,299,0.0,8.0,61,0.00,,,0.00,WUHU216DAVISVP2,2013-03-29 01:14:00,
2013-03-28 21:19:00,44.1,31.6,30.20,West,279,0.0,8.0,61,0.00,,,0.00,WUHU216DAVISVP2,2013-03-29 01:19:00,
2013-03-28 21:24:00,44.0,31.9,30.20,WNW,294,0.0,7.0,62,0.00,,,0.00,WUHU216DAVISVP2,2013-03-29 01:24:00,
2013-03-28 21:29:00,43.9,31.8,30.20,WNW,286,7.0,8.0,62,0.00,,,0.00,WUHU216DAVISVP2,2013-03-29 01:29:00,
2013-03-28 21:34:00,44.0,31.9,30.20,West,281,4.0,8.0,62,0.00,,,0.00,WUHU216DAVISVP2,2013-03-29 01:34:00,
2013-03-28 21:39:00,44.0,31.9,30.20,North,360,1.0,8.0,62,0.00,,,0.00,WUHU216DAVISVP2,2013-03-29 01:39:00,
2013-03-28 21:44:00,44.1,31.6,30.20,WNW,302,1.0,9.0,61,0.00,,,0.00,WUHU216DAVISVP2,2013-03-29 01:44:00,
2013-03-28 21:49:00,44.0,31.9,30.20,West,263,3.0,9.0,62,0.00,,,0.00,WUHU216DAVISVP2,2013-03-29 01:49:00,
2013-03-28 21:54:00,44.0,31.9,30.20,West,281,0.0,9.0,62,0.00,,,0.00,WUHU216DAVISVP2,2013-03-29 01:54:00,
2013-03-28 21:59:00,43.9,31.8,30.20,West,281,1.0,8.0,62,0.00,,,0.00,WUHU216DAVISVP2,2013-03-29 01:59:00,
2013-03-28 22:04:00,43.9,31.8,30.21,WNW,288,0.0,8.0,62,0.00,,,0.00,WUHU216DAVISVP2,2013-03-29 02:04:00,
2013-03-28 22:09:00,43.8,32.1,30.21,WNW,286,0.0,7.0,63,0.00,,,0.00,WUHU216DAVISVP2,2013-03-29 02:09:00,
2013-03-28 22:14:00,43.7,31.6,30.21,NW,312,2.0,6.0,62,0.00,,,0.00,WUHU216DAVISVP2,2013-03-29 02:14:00,
2013-03-28 22:19:00,43.6,31.9,30.21,NW,309,2.0,6.0,63,0.00,,,0.00,WUHU216DAVISVP2,2013-03-29 02:19:00,
2013-03-28 22:24:00,43.6,31.9,30.21,WNW,297,2.0,8.0,63,0.00,,,0.00,WUHU216DAVISVP2,2013-03-29 02:24:00,
2013-03-28 22:29:00,43.6,31.9,30.21,NW,306,0.0,8.0,63,0.00,,,0.00,WUHU216DAVISVP2,2013-03-29 02:29:00,
2013-03-28 22:34:00,43.6,31.9,30.21,NW,321,2.0,8.0,63,0.00,,,0.00,WUHU216DAVISVP2,2013-03-29 02:34:00,
2013-03-28 22:39:00,43.6,32.3,30.21,WNW,296,2.0,8.0,64,0.00,,,0.00,WUHU216DAVISVP2,2013-03-29 02:39:00,
2013-03-28 22:44:00,43.6,31.9,30.21,WNW,290,2.0,5.0,63,0.00,,,0.00,WUHU216DAVISVP2,2013-03-29 02:44:00,
2013-03-28 22:49:00,43.7,32.0,30.21,WNW,286,0.0,6.0,63,0.00,,,0.00,WUHU216DAVISVP2,2013-03-29 02:49:00,
2013-03-28 22:54:00,43.7,32.0,30.21,NNW,337,0.0,7.0,63,0.00,,,0.00,WUHU216DAVISVP2,2013-03-29 02:54:00,
2013-03-28 22:59:00,43.8,32.1,30.21,WNW,296,0.0,7.0,63,0.00,,,0.00,WUHU216DAVISVP2,2013-03-29 02:59:00,
2013-03-28 23:04:00,43.8,32.1,30.21,WNW,293,1.0,7.0,63,0.00,,,0.00,WUHU216DAVISVP2,2013-03-29 03:04:00,
2013-03-28 23:09:00,43.7,32.0,30.21,West,281,4.0,7.0,63,0.00,,,0.00,WUHU216DAVISVP2,2013-03-29 03:09:00,
2013-03-28 23:14:00,43.7,32.4,30.21,West,277,2.0,7.0,64,0.00,,,0.00,WUHU216DAVISVP2,2013-03-29 03:14:00,
2013-03-28 23:19:00,43.6,32.3,30.21,NNW,329,0.0,5.0,64,0.00,,,0.00,WUHU216DAVISVP2,2013-03-29 03:19:00,
2013-03-28 23:24:00,43.5,31.8,30.21,NW,306,0.0,5.0,63,0.00,,,0.00,WUHU216DAVISVP2,2013-03-29 03:24:00,
2013-03-28 23:29:00,43.5,32.2,30.21,NW,306,0.0,5.0,64,0.00,,,0.00,WUHU216DAVISVP2,2013-03-29 03:29:00,
2013-03-28 23:34:00,43.4,32.1,30.21,NW,306,0.0,5.0,64,0.00,,,0.00,WUHU216DAVISVP2,2013-03-29 03:34:00,
2013-03-28 23:39:00,43.3,32.0,30.22,NW,306,2.0,5.0,64,0.00,,,0.00,WUHU216DAVISVP2,2013-03-29 03:39:00,
2013-03-28 23:44:00,43.3,32.4,30.22,NW,309,0.0,3.0,65,0.00,,,0.00,WUHU216DAVISVP2,2013-03-29 03:44:00,
2013-03-28 23:49:00,43.2,31.9,30.22,West,275,1.0,5.0,64,0.00,,,0.00,WUHU216DAVISVP2,2013-03-29 03:49:00,
2013-03-28 23:54:00,43.2,32.3,30.22,NW,319,0.0,5.0,65,0.00,,,0.00,WUHU216DAVISVP2,2013-03-29 03:54:00,
2013-03-28 23:59:00,43.2,32.3,30.22,NW,319,0.0,5.0,65,0.00,,,0.00,WUHU216DAVISVP2,2013-03-29 03:59:00,